Time,TemperatureF,DewpointF,PressureIn,WindDirection,WindDirectionDegrees,WindSpeedMPH,WindSpeedGustMPH,Humidity,HourlyPrecipIn,Conditions,Clouds,dailyrainin,SoftwareType,DateUTC
2013-02-24 00:01:00,28.9,25.0,29.94,SW,235,0.0,-999.0,84,-99.99,,,0.00,weatherlink.com 1.10,2013-02-24 05:01:00,
2013-02-24 00:16:00,28.8,25.0,29.93,SW,216,0.0,-999.0,84,-99.99,,,0.00,weatherlink.com 1.10,2013-02-24 05:16:00,
2013-02-24 00:31:00,28.7,25.0,29.93,SW,216,0.0,-999.0,84,-99.99,,,0.00,weatherlink.com 1.10,2013-02-24 05:31:00,
2013-02-24 00:46:00,28.6,24.0,29.93,SW,216,1.0,-999.0,84,-99.99,,,0.00,weatherlink.com 1.10,2013-02-24 05:46:00,
2013-02-24 01:01:00,28.5,24.0,29.92,SW,216,0.0,-999.0,83,-99.99,,,0.00,weatherlink.com 1.10,2013-02-24 06:01:00,
2013-02-24 01:16:00,28.5,24.0,29.92,SW,216,0.0,-999.0,83,-99.99,,,0.00,weatherlink.com 1.10,2013-02-24 06:16:00,
2013-02-24 01:31:00,28.0,24.0,29.92,SW,216,0.0,-999.0,83,-99.99,,,0.00,weatherlink.com 1.10,2013-02-24 06:31:00,
2013-02-24 01:46:00,27.7,24.0,29.92,SW,216,0.0,-999.0,84,-99.99,,,0.00,weatherlink.com 1.10,2013-02-24 06:46:00,
2013-02-24 02:01:00,27.8,24.0,29.92,SW,216,0.0,-999.0,85,-99.99,,,0.00,weatherlink.com 1.10,2013-02-24 07:01:00,
2013-02-24 02:16:00,28.2,25.0,29.92,SW,216,0.0,-999.0,86,-99.99,,,0.00,weatherlink.com 1.10,2013-02-24 07:16:00,
2013-02-24 02:31:00,28.4,25.0,29.92,SW,216,0.0,-999.0,86,-99.99,,,0.00,weatherlink.com 1.10,2013-02-24 07:31:00,
2013-02-24 02:46:00,28.8,25.0,29.92,SW,216,0.0,-999.0,87,-99.99,,,0.00,weatherlink.com 1.10,2013-02-24 07:46:00,
2013-02-24 03:01:00,29.2,26.0,29.92,SW,224,0.0,-999.0,86,-99.99,,,0.00,weatherlink.com 1.10,2013-02-24 08:01:00,
2013-02-24 03:16:00,29.6,26.0,29.92,WSW,240,4.0,-999.0,86,-99.99,,,0.00,weatherlink.com 1.10,2013-02-24 08:16:00,
2013-02-24 03:31:00,29.9,26.0,29.92,WSW,256,1.0,-999.0,84,-99.99,,,0.00,weatherlink.com 1.10,2013-02-24 08:31:00,
2013-02-24 03:46:00,29.9,25.0,29.92,WSW,251,2.0,-999.0,83,-99.99,,,0.00,weatherlink.com 1.10,2013-02-24 08:46:00,
2013-02-24 04:01:00,29.9,25.0,29.92,West,273,0.0,-999.0,83,-99.99,,,0.00,weatherlink.com 1.10,2013-02-24 09:01:00,
2013-02-24 04:16:00,30.1,25.0,29.92,West,261,0.0,-999.0,82,-99.99,,,0.00,weatherlink.com 1.10,2013-02-24 09:16:00,
2013-02-24 04:32:00,30.2,25.0,29.92,WSW,242,4.0,-999.0,82,-99.99,,,0.00,weatherlink.com 1.10,2013-02-24 09:32:00,
2013-02-24 04:46:00,30.3,25.0,29.92,SW,215,5.0,-999.0,81,-99.99,,,0.00,weatherlink.com 1.10,2013-02-24 09:46:00,
2013-02-24 05:02:00,30.3,25.0,29.93,WSW,246,4.0,-999.0,81,-99.99,,,0.00,weatherlink.com 1.10,2013-02-24 10:02:00,
2013-02-24 05:17:00,30.3,25.0,29.93,SW,230,2.0,-999.0,81,-99.99,,,0.00,weatherlink.com 1.10,2013-02-24 10:17:00,
2013-02-24 05:32:00,30.3,25.0,29.93,SW,225,3.0,-999.0,82,-99.99,,,0.00,weatherlink.com 1.10,2013-02-24 10:32:00,
2013-02-24 05:47:00,30.3,25.0,29.93,WSW,252,7.0,-999.0,82,-99.99,,,0.00,weatherlink.com 1.10,2013-02-24 10:47:00,
2013-02-24 06:02:00,30.2,25.0,29.94,WSW,253,5.0,-999.0,82,-99.99,,,0.00,weatherlink.com 1.10,2013-02-24 11:02:00,
2013-02-24 06:17:00,30.2,25.0,29.94,SW,230,8.0,-999.0,82,-99.99,,,0.00,weatherlink.com 1.10,2013-02-24 11:17:00,
2013-02-24 06:32:00,30.1,26.0,29.94,SW,235,7.0,-999.0,83,-99.99,,,0.00,weatherlink.com 1.10,2013-02-24 11:32:00,
2013-02-24 06:47:00,29.9,26.0,29.94,WSW,256,6.0,-999.0,84,-99.99,,,0.00,weatherlink.com 1.10,2013-02-24 11:47:00,
2013-02-24 07:02:00,29.8,26.0,29.94,SSW,211,8.0,-999.0,85,-99.99,,,0.00,weatherlink.com 1.10,2013-02-24 12:02:00,
2013-02-24 07:17:00,29.5,26.0,29.94,WSW,242,11.0,-999.0,86,-99.99,,,0.00,weatherlink.com 1.10,2013-02-24 12:17:00,
2013-02-24 07:32:00,29.0,26.0,29.94,West,264,8.0,-999.0,89,-99.99,,,0.00,weatherlink.com 1.10,2013-02-24 12:32:00,
2013-02-24 07:47:00,28.8,27.0,29.94,WSW,254,9.0,-999.0,91,-99.99,,,0.00,weatherlink.com 1.10,2013-02-24 12:47:00,
2013-02-24 08:02:00,28.7,27.0,29.95,West,273,7.0,-999.0,92,-99.99,,,0.00,weatherlink.com 1.10,2013-02-24 13:02:00,
2013-02-24 08:17:00,28.8,27.0,29.95,SSW,200,7.0,-999.0,93,-99.99,,,0.00,weatherlink.com 1.10,2013-02-24 13:17:00,
2013-02-24 08:32:00,29.0,28.0,29.95,West,279,7.0,-999.0,94,-99.99,,,0.00,weatherlink.com 1.10,2013-02-24 13:32:00,
2013-02-24 08:47:00,29.0,28.0,29.96,WNW,284,9.0,-999.0,94,-99.99,,,0.00,weatherlink.com 1.10,2013-02-24 13:47:00,
2013-02-24 09:02:00,28.9,27.0,29.96,West,275,10.0,-999.0,94,-99.99,,,0.00,weatherlink.com 1.10,2013-02-24 14:02:00,
2013-02-24 09:17:00,28.9,27.0,29.96,West,265,8.0,-999.0,94,-99.99,,,0.00,weatherlink.com 1.10,2013-02-24 14:17:00,
2013-02-24 09:32:00,29.1,28.0,29.96,West,268,9.0,-999.0,94,-99.99,,,0.00,weatherlink.com 1.10,2013-02-24 14:32:00,
2013-02-24 09:47:00,29.0,27.0,29.97,WSW,254,14.0,-999.0,93,-99.99,,,0.00,weatherlink.com 1.10,2013-02-24 14:47:00,
2013-02-24 10:02:00,29.4,27.0,29.97,West,279,14.0,-999.0,92,-99.99,,,0.00,weatherlink.com 1.10,2013-02-24 15:02:00,
2013-02-24 10:17:00,29.8,27.0,29.98,West,265,11.0,-999.0,90,-99.99,,,0.00,weatherlink.com 1.10,2013-02-24 15:17:00,
2013-02-24 10:32:00,30.2,27.0,29.97,West,277,19.0,-999.0,88,-99.99,,,0.00,weatherlink.com 1.10,2013-02-24 15:32:00,
2013-02-24 10:47:00,30.5,27.0,29.98,West,274,14.0,-999.0,88,-99.99,,,0.00,weatherlink.com 1.10,2013-02-24 15:47:00,
2013-02-24 11:02:00,30.9,27.0,29.98,NW,313,9.0,-999.0,86,-99.99,,,0.00,weatherlink.com 1.10,2013-02-24 16:02:00,
2013-02-24 11:17:00,31.0,27.0,29.98,West,272,10.0,-999.0,85,-99.99,,,0.00,weatherlink.com 1.10,2013-02-24 16:17:00,
2013-02-24 11:32:00,31.2,27.0,29.98,WNW,292,13.0,-999.0,84,-99.99,,,0.00,weatherlink.com 1.10,2013-02-24 16:32:00,
2013-02-24 11:47:00,31.4,27.0,29.99,West,265,13.0,-999.0,84,-99.99,,,0.00,weatherlink.com 1.10,2013-02-24 16:47:00,
2013-02-24 12:02:00,31.6,27.0,29.99,NW,304,13.0,-999.0,84,-99.99,,,0.00,weatherlink.com 1.10,2013-02-24 17:02:00,
2013-02-24 12:17:00,32.0,28.0,29.99,West,272,10.0,-999.0,85,-99.99,,,0.00,weatherlink.com 1.10,2013-02-24 17:17:00,
2013-02-24 12:32:00,32.3,28.0,29.99,West,273,16.0,-999.0,83,-99.99,,,0.00,weatherlink.com 1.10,2013-02-24 17:32:00,
2013-02-24 12:47:00,31.7,28.0,29.99,West,269,14.0,-999.0,85,-99.99,,,0.00,weatherlink.com 1.10,2013-02-24 17:47:00,
2013-02-24 13:02:00,32.3,29.0,29.99,West,273,14.0,-999.0,86,-99.99,,,0.00,weatherlink.com 1.10,2013-02-24 18:02:00,
2013-02-24 13:17:00,32.6,29.0,29.99,WSW,256,18.0,-999.0,85,-99.99,,,0.00,weatherlink.com 1.10,2013-02-24 18:17:00,
2013-02-24 13:32:00,32.3,28.0,29.99,West,277,16.0,-999.0,85,-99.99,,,0.00,weatherlink.com 1.10,2013-02-24 18:32:00,
2013-02-24 13:47:00,32.3,28.0,29.99,WNW,284,14.0,-999.0,84,-99.99,,,0.00,weatherlink.com 1.10,2013-02-24 18:47:00,
2013-02-24 14:03:00,32.5,27.0,29.99,West,272,11.0,-999.0,81,-99.99,,,0.00,weatherlink.com 1.10,2013-02-24 19:03:00,
2013-02-24 14:17:00,32.8,27.0,29.99,WSW,248,12.0,-999.0,80,-99.99,,,0.00,weatherlink.com 1.10,2013-02-24 19:17:00,
2013-02-24 14:33:00,33.1,28.0,29.99,WSW,253,7.0,-999.0,80,-99.99,,,0.00,weatherlink.com 1.10,2013-02-24 19:33:00,
2013-02-24 14:48:00,33.5,28.0,30.00,West,280,11.0,-999.0,79,-99.99,,,0.00,weatherlink.com 1.10,2013-02-24 19:48:00,
2013-02-24 15:03:00,33.9,28.0,30.00,West,268,11.0,-999.0,78,-99.99,,,0.00,weatherlink.com 1.10,2013-02-24 20:03:00,
2013-02-24 15:18:00,33.6,27.0,30.00,West,279,21.0,-999.0,78,-99.99,,,0.00,weatherlink.com 1.10,2013-02-24 20:18:00,
2013-02-24 15:33:00,33.6,27.0,30.01,WNW,303,12.0,-999.0,78,-99.99,,,0.00,weatherlink.com 1.10,2013-02-24 20:33:00,
2013-02-24 15:48:00,33.6,28.0,30.02,West,279,10.0,-999.0,79,-99.99,,,0.00,weatherlink.com 1.10,2013-02-24 20:48:00,
2013-02-24 16:03:00,33.7,28.0,30.02,West,277,12.0,-999.0,80,-99.99,,,0.00,weatherlink.com 1.10,2013-02-24 21:03:00,
2013-02-24 16:18:00,33.5,28.0,30.03,West,281,10.0,-999.0,81,-99.99,,,0.00,weatherlink.com 1.10,2013-02-24 21:18:00,
2013-02-24 16:33:00,33.7,28.0,30.03,WNW,284,12.0,-999.0,81,-99.99,,,0.00,weatherlink.com 1.10,2013-02-24 21:33:00,
2013-02-24 16:48:00,33.8,30.0,30.04,WNW,290,15.0,-999.0,84,-99.99,,,0.00,weatherlink.com 1.10,2013-02-24 21:48:00,
2013-02-24 17:03:00,33.9,29.0,30.05,NW,309,11.0,-999.0,83,-99.99,,,0.00,weatherlink.com 1.10,2013-02-24 22:03:00,
2013-02-24 17:18:00,33.7,29.0,30.06,WNW,286,12.0,-999.0,84,-99.99,,,0.00,weatherlink.com 1.10,2013-02-24 22:18:00,
2013-02-24 17:33:00,33.5,29.0,30.06,West,275,12.0,-999.0,84,-99.99,,,0.00,weatherlink.com 1.10,2013-02-24 22:33:00,
2013-02-24 17:48:00,33.5,30.0,30.07,WNW,284,11.0,-999.0,85,-99.99,,,0.00,weatherlink.com 1.10,2013-02-24 22:48:00,
2013-02-24 18:03:00,33.6,29.0,30.07,WNW,284,12.0,-999.0,84,-99.99,,,0.00,weatherlink.com 1.10,2013-02-24 23:03:00,
2013-02-24 18:18:00,33.7,29.0,30.08,NW,307,9.0,-999.0,84,-99.99,,,0.00,weatherlink.com 1.10,2013-02-24 23:18:00,
2013-02-24 18:33:00,33.8,30.0,30.09,WNW,294,11.0,-999.0,84,-99.99,,,0.00,weatherlink.com 1.10,2013-02-24 23:33:00,
2013-02-24 18:48:00,33.8,29.0,30.09,WNW,295,11.0,-999.0,83,-99.99,,,0.00,weatherlink.com 1.10,2013-02-24 23:48:00,
2013-02-24 19:03:00,33.7,29.0,30.10,WNW,283,10.0,-999.0,84,-99.99,,,0.00,weatherlink.com 1.10,2013-02-25 00:03:00,
2013-02-24 19:18:00,33.7,29.0,30.11,WNW,288,9.0,-999.0,83,-99.99,,,0.00,weatherlink.com 1.10,2013-02-25 00:18:00,
2013-02-24 19:33:00,33.6,29.0,30.11,WNW,292,14.0,-999.0,83,-99.99,,,0.00,weatherlink.com 1.10,2013-02-25 00:33:00,
2013-02-24 19:48:00,33.3,29.0,30.11,NW,314,13.0,-999.0,84,-99.99,,,0.00,weatherlink.com 1.10,2013-02-25 00:48:00,
2013-02-24 20:03:00,33.3,29.0,30.12,WNW,302,15.0,-999.0,83,-99.99,,,0.00,weatherlink.com 1.10,2013-02-25 01:03:00,
2013-02-24 20:18:00,33.4,29.0,30.13,West,269,16.0,-999.0,83,-99.99,,,0.00,weatherlink.com 1.10,2013-02-25 01:18:00,
2013-02-24 20:33:00,33.3,29.0,30.14,WNW,302,11.0,-999.0,83,-99.99,,,0.00,weatherlink.com 1.10,2013-02-25 01:33:00,
2013-02-24 20:48:00,33.4,29.0,30.14,WNW,290,15.0,-999.0,82,-99.99,,,0.00,weatherlink.com 1.10,2013-02-25 01:48:00,
2013-02-24 21:03:00,33.3,29.0,30.14,NW,311,8.0,-999.0,83,-99.99,,,0.00,weatherlink.com 1.10,2013-02-25 02:03:00,
2013-02-24 21:18:00,33.3,29.0,30.14,WNW,284,11.0,-999.0,83,-99.99,,,0.00,weatherlink.com 1.10,2013-02-25 02:18:00,
2013-02-24 21:33:00,33.3,29.0,30.14,West,272,12.0,-999.0,83,-99.99,,,0.00,weatherlink.com 1.10,2013-02-25 02:33:00,
2013-02-24 21:48:00,33.3,29.0,30.14,WNW,289,8.0,-999.0,83,-99.99,,,0.00,weatherlink.com 1.10,2013-02-25 02:48:00,
2013-02-24 22:03:00,33.4,29.0,30.14,West,271,11.0,-999.0,83,-99.99,,,0.00,weatherlink.com 1.10,2013-02-25 03:03:00,
2013-02-24 22:18:00,33.5,29.0,30.14,WNW,292,7.0,-999.0,83,-99.99,,,0.00,weatherlink.com 1.10,2013-02-25 03:18:00,
2013-02-24 22:33:00,33.5,29.0,30.14,West,273,13.0,-999.0,83,-99.99,,,0.00,weatherlink.com 1.10,2013-02-25 03:33:00,
2013-02-24 22:48:00,33.5,29.0,30.14,West,267,13.0,-999.0,84,-99.99,,,0.00,weatherlink.com 1.10,2013-02-25 03:48:00,
2013-02-24 23:03:00,33.3,29.0,30.14,West,275,12.0,-999.0,85,-99.99,,,0.00,weatherlink.com 1.10,2013-02-25 04:03:00,
2013-02-24 23:18:00,33.0,29.0,30.14,WSW,247,5.0,-999.0,84,-99.99,,,0.00,weatherlink.com 1.10,2013-02-25 04:18:00,
2013-02-24 23:33:00,32.7,28.0,30.15,WSW,252,2.0,-999.0,83,-99.99,,,0.00,weatherlink.com 1.10,2013-02-25 04:33:00,
2013-02-24 23:48:00,32.5,28.0,30.15,WSW,251,7.0,-999.0,83,-99.99,,,0.00,weatherlink.com 1.10,2013-02-25 04:48:00,